sat.trackr.live / text

‹ back to catalog

QIANFAN-18

NORAD 60396 · 2024-140T

PAYLOAD ACTIVE UNKNOWN

§ Identity

Operator
Country
PRC
Launch date
2024-08-06
Launch site
TAISC
Launch vehicle
Mass (kg)
RCS (m²)

External: N2YO · Heavens-Above · Gunter

§ Orbital elements

Epoch: 2026-05-25T04:06:28.978272Z

Period
106.59 min
Inclination
88.9720°
Eccentricity
0.0016159
Mean motion
13.51010999 rev/d
Perigee alt
1,056.5 km
Apogee alt
1,080.6 km
Semi-major
7,446.7 km
B*
1.0267e-4
RAAN
282.0146°
Arg perigee
79.9790°
Mean anomaly
280.3184°
Rev number
8,959

§ Raw data

QIANFAN-181 60396U 24140T   26145.17116873  .00000079  00000+0  10267-3 0  99912 60396  88.9720 282.0146 0016159  79.9790 280.3184 13.51010999 89591

JSON: /api/v1/satellites/60396 · /tle

For live sub-satellite position, see the globe view (requires WebGL).

§ Visibility from observer

Set your observer location to see the next 7 days of passes ≥ 10°. The values pass through the URL so the page stays shareable.

No JS? Fill the form by hand. The geolocation button needs JavaScript.